TimeCDT,TemperatureF,Dew PointF,Humidity,Sea Level PressureIn,VisibilityMPH,Wind Direction,Wind SpeedMPH,Gust SpeedMPH,PrecipitationIn,Events,Conditions,WindDirDegrees,DateUTC
12:15 AM,66.2,53.6,64,30.01,10.0,South,6.9,-,N/A,,Clear,180,2013-07-12 05:15:00
12:35 AM,66.2,53.6,64,30.02,10.0,South,3.5,-,N/A,,Clear,170,2013-07-12 05:35:00
12:55 AM,66.2,53.6,64,30.01,10.0,South,4.6,-,N/A,,Clear,180,2013-07-12 05:55:00
1:15 AM,66.2,53.6,64,30.01,10.0,South,5.8,-,N/A,,Clear,190,2013-07-12 06:15:00
1:35 AM,66.2,53.6,64,30.02,10.0,West,4.6,-,N/A,,Clear,270,2013-07-12 06:35:00
1:55 AM,64.4,53.6,68,30.01,10.0,SW,6.9,-,N/A,,Clear,220,2013-07-12 06:55:00
2:15 AM,64.4,53.6,68,30.02,10.0,SW,8.1,-,N/A,,Clear,220,2013-07-12 07:15:00
2:35 AM,66.2,53.6,64,30.02,10.0,SSW,4.6,-,N/A,,Clear,210,2013-07-12 07:35:00
2:55 AM,66.2,53.6,64,30.03,10.0,SW,9.2,-,N/A,,Clear,220,2013-07-12 07:55:00
3:15 AM,66.2,53.6,64,30.01,10.0,South,8.1,-,N/A,,Clear,180,2013-07-12 08:15:00
3:35 AM,64.4,53.6,68,30.01,10.0,SSW,9.2,-,N/A,,Clear,200,2013-07-12 08:35:00
3:55 AM,66.2,53.6,64,30.02,10.0,SSW,6.9,-,N/A,,Clear,210,2013-07-12 08:55:00
4:15 AM,66.2,53.6,64,30.02,10.0,SSW,6.9,-,N/A,,Partly Cloudy,200,2013-07-12 09:15:00
4:35 AM,66.2,53.6,64,30.03,10.0,SW,4.6,-,N/A,,Partly Cloudy,220,2013-07-12 09:35:00
4:55 AM,66.2,53.6,64,30.02,10.0,South,10.4,18.4,N/A,,Clear,180,2013-07-12 09:55:00
5:15 AM,66.2,55.4,68,30.03,10.0,South,8.1,-,N/A,,Clear,190,2013-07-12 10:15:00
5:35 AM,66.2,55.4,68,30.03,10.0,SSW,11.5,-,N/A,,Clear,210,2013-07-12 10:35:00
5:55 AM,66.2,55.4,68,30.04,10.0,SW,9.2,-,N/A,,Partly Cloudy,220,2013-07-12 10:55:00
6:15 AM,66.2,55.4,68,30.04,10.0,SW,6.9,-,N/A,,Partly Cloudy,220,2013-07-12 11:15:00
6:35 AM,66.2,55.4,68,30.05,10.0,SW,6.9,-,N/A,,Clear,220,2013-07-12 11:35:00
6:55 AM,66.2,55.4,68,30.05,10.0,SW,8.1,-,N/A,,Partly Cloudy,220,2013-07-12 11:55:00
7:15 AM,66.2,55.4,68,30.05,10.0,SSW,4.6,-,N/A,,Partly Cloudy,210,2013-07-12 12:15:00
7:35 AM,68.0,55.4,64,30.06,10.0,SSW,3.5,-,N/A,,Clear,210,2013-07-12 12:35:00
7:55 AM,69.8,57.2,64,30.05,10.0,SSW,6.9,-,N/A,,Clear,210,2013-07-12 12:55:00
8:15 AM,69.8,57.2,64,30.05,10.0,South,9.2,17.3,N/A,,Clear,190,2013-07-12 13:15:00
8:35 AM,71.6,57.2,60,30.05,10.0,SW,8.1,-,N/A,,Clear,220,2013-07-12 13:35:00
8:55 AM,71.6,57.2,60,30.06,10.0,SSW,10.4,18.4,N/A,,Clear,210,2013-07-12 13:55:00
9:15 AM,71.6,59.0,64,30.06,10.0,South,11.5,-,N/A,,Clear,190,2013-07-12 14:15:00
9:35 AM,73.4,59.0,61,30.05,10.0,South,10.4,19.6,N/A,,Clear,190,2013-07-12 14:35:00
9:55 AM,75.2,57.2,53,30.05,10.0,SW,15.0,23.0,N/A,,Clear,220,2013-07-12 14:55:00
10:15 AM,75.2,57.2,53,30.04,10.0,SSW,18.4,21.9,N/A,,Clear,210,2013-07-12 15:15:00
10:35 AM,75.2,57.2,53,30.04,10.0,SSW,9.2,-,N/A,,Clear,200,2013-07-12 15:35:00
10:55 AM,77.0,57.2,50,30.03,10.0,South,11.5,25.3,N/A,,Clear,190,2013-07-12 15:55:00
11:15 AM,75.2,57.2,53,30.03,10.0,SSW,16.1,21.9,N/A,,Clear,200,2013-07-12 16:15:00
11:35 AM,75.2,57.2,53,30.02,10.0,SSW,9.2,-,N/A,,Clear,200,2013-07-12 16:35:00
11:55 AM,77.0,59.0,54,30.01,10.0,South,9.2,-,N/A,,Clear,180,2013-07-12 16:55:00
12:15 PM,78.8,59.0,51,30.01,10.0,South,10.4,19.6,N/A,,Clear,190,2013-07-12 17:15:00
12:35 PM,78.8,59.0,51,30.00,10.0,South,17.3,24.2,N/A,,Clear,180,2013-07-12 17:35:00
12:55 PM,80.6,57.2,45,30.00,10.0,SSW,16.1,20.7,N/A,,Clear,200,2013-07-12 17:55:00
1:15 PM,80.6,57.2,45,29.99,10.0,South,11.5,21.9,N/A,,Clear,180,2013-07-12 18:15:00
1:35 PM,80.6,57.2,45,29.99,10.0,South,12.7,21.9,N/A,,Clear,180,2013-07-12 18:35:00
1:55 PM,82.4,57.2,42,29.98,10.0,South,9.2,21.9,N/A,,Clear,170,2013-07-12 18:55:00
2:15 PM,82.4,57.2,42,29.97,10.0,South,15.0,19.6,N/A,,Clear,170,2013-07-12 19:15:00
2:35 PM,82.4,57.2,42,29.97,10.0,South,15.0,24.2,N/A,,Clear,180,2013-07-12 19:35:00
2:55 PM,82.4,55.4,39,29.97,10.0,SSW,15.0,25.3,N/A,,Clear,200,2013-07-12 19:55:00
3:15 PM,82.4,57.2,42,29.98,10.0,South,16.1,21.9,N/A,,Clear,170,2013-07-12 20:15:00
3:35 PM,82.4,55.4,39,29.97,10.0,South,15.0,24.2,N/A,,Clear,180,2013-07-12 20:35:00
3:55 PM,82.4,55.4,39,29.96,10.0,South,19.6,26.5,N/A,,Clear,170,2013-07-12 20:55:00
4:15 PM,82.4,57.2,42,29.96,10.0,South,13.8,21.9,N/A,,Clear,170,2013-07-12 21:15:00
4:35 PM,82.4,55.4,39,29.96,10.0,SSW,15.0,20.7,N/A,,Clear,200,2013-07-12 21:35:00
4:55 PM,82.4,55.4,39,29.96,10.0,South,12.7,21.9,N/A,,Clear,190,2013-07-12 21:55:00
5:15 PM,82.4,57.2,42,29.95,10.0,South,16.1,23.0,N/A,,Clear,180,2013-07-12 22:15:00
5:35 PM,80.6,55.4,42,29.96,10.0,South,10.4,21.9,N/A,,Clear,190,2013-07-12 22:35:00
5:55 PM,80.6,55.4,42,29.96,10.0,South,11.5,20.7,N/A,,Clear,170,2013-07-12 22:55:00
6:15 PM,82.4,57.2,42,29.96,10.0,South,12.7,20.7,N/A,,Clear,180,2013-07-12 23:15:00
6:35 PM,80.6,55.4,42,29.95,10.0,South,10.4,20.7,N/A,,Clear,170,2013-07-12 23:35:00
6:55 PM,80.6,55.4,42,29.95,10.0,South,11.5,21.9,N/A,,Clear,180,2013-07-12 23:55:00
7:15 PM,80.6,55.4,42,29.95,10.0,South,15.0,23.0,N/A,,Clear,190,2013-07-13 00:15:00
7:35 PM,78.8,57.2,47,29.96,10.0,South,11.5,25.3,N/A,,Clear,190,2013-07-13 00:35:00
7:55 PM,78.8,55.4,44,29.95,10.0,South,9.2,-,N/A,,Clear,180,2013-07-13 00:55:00
8:15 PM,78.8,55.4,44,29.95,10.0,South,10.4,18.4,N/A,,Clear,180,2013-07-13 01:15:00
8:35 PM,77.0,55.4,47,29.95,10.0,South,10.4,-,N/A,,Clear,180,2013-07-13 01:35:00
8:55 PM,75.2,55.4,50,29.94,10.0,South,12.7,18.4,N/A,,Clear,170,2013-07-13 01:55:00
9:15 PM,75.2,55.4,50,29.95,10.0,South,12.7,19.6,N/A,,Clear,170,2013-07-13 02:15:00
9:35 PM,75.2,55.4,50,29.94,10.0,South,16.1,23.0,N/A,,Clear,170,2013-07-13 02:35:00
9:55 PM,73.4,57.2,57,29.94,10.0,South,12.7,24.2,N/A,,Clear,170,2013-07-13 02:55:00
10:15 PM,73.4,55.4,53,29.93,10.0,South,13.8,23.0,N/A,,Clear,180,2013-07-13 03:15:00
10:35 PM,73.4,55.4,53,29.94,10.0,South,12.7,21.9,N/A,,Clear,180,2013-07-13 03:35:00
10:55 PM,73.4,55.4,53,29.95,10.0,South,16.1,25.3,N/A,,Clear,190,2013-07-13 03:55:00
11:15 PM,73.4,55.4,53,29.95,10.0,South,16.1,24.2,N/A,,Clear,180,2013-07-13 04:15:00
11:35 PM,73.4,55.4,53,29.94,10.0,South,15.0,27.6,N/A,,Clear,180,2013-07-13 04:35:00
11:55 PM,73.4,55.4,53,29.95,10.0,South,11.5,23.0,N/A,,Clear,190,2013-07-13 04:55:00